Temp
10 10 10 11 12 12 12 11 12 14 15 13 14 14 13 9 10 12 11 11 9 6 5 3 2 1 1 1 2 2 3 3 3 3 3 3 3 3 4 5 5 6 6 8
9 9 11 12 12 11 11 11 11 13 13 11 12 13 11 8 9 10 10 10 9 7 6 5 3 2 2 1 1 2 2 2 3 3 3 3 2 3 2 3 3 4 5 5
10 10 9 10 10 9 10 9 10 11 12 11 11 12 11 8 6 5 6 8 9 8 7 6 4 3 2 2 2 1 2 2 2 3 3 3 2 2 3 2 2 2 3 4
10 10 8 9 9 10 9 11 10 10 10 9 11 9 13 9 5 4 5 5 6 6 7 6 3 3 2 2 1 2 1 2 2 3 4 4 5 4 3 2 1 1 1 1
8 8 7 8 8 7 9 10 10 10 9 9 10 8 12 10 6 5 4 5 5 5 6 6 4 -0 -0 -1 1 0 1 1 1 2 4 4 4 3 2 2 1 1 1 1
7 6 6 5 6 7 8 8 9 9 8 6 9 9 11 9 6 7 3 3 3 3 4 4 3 -0 -2 -2 -1 -1 -1 -1 -0 1 2 3 3 3 2 2 2 1 0 0
6 5 5 4 5 8 6 7 7 6 6 7 10 9 10 2 2 4 2 1 2 1 2 3 3 1 -1 -2 -3 -2 -2 -2 -0 -0 1 2 3 3 3 2 2 1 0 0
5 4 3 3 3 3 5 6 7 7 8 9 8 8 7 0 1 1 1 0 0 0 0 1 2 0 -2 -3 -3 -3 -2 -2 -1 -1 -1 1 1 2 2 2 2 1 0 -0
3 4 3 3 2 3 4 5 4 5 7 6 7 2 2 1 0 0 0 0 -1 -0 -1 -1 -1 -1 -3 -4 -4 -4 -3 -3 -2 -2 -1 -1 0 1 1 1 1 0 -0 -1
1 3 3 3 3 2 2 3 4 5 5 6 7 6 5 1 0 0 -0 -1 -1 -1 -1 -1 -2 -3 -3 -4 -4 -4 -4 -3 -3 -3 -2 -2 -2 -1 -0 0 0 -0 -1 -1
2 1 3 4 0 -0 3 3 3 3 4 6 6 4 -1 1 1 0 -1 -1 -1 -2 -2 -2 -3 -3 -3 -4 -4 -5 -5 -4 -4 -3 -3 -2 -2 -2 -1 -1 -1 -1 -1 -1
2 1 3 1 -1 -2 -1 -1 1 3 3 4 4 2 -2 -2 -0 -1 -1 -2 -3 -3 -4 -4 -4 -5 -5 -5 -5 -5 -5 -5 -5 -4 -3 -3 -2 -2 -2 -2 -2 -2 -2 -2
2 1 2 0 -1 -0 1 -0 -2 -1 0 3 3 2 -2 -1 -0 -1 -2 -2 -3 -3 -4 -4 -5 -6 -6 -7 -7 -7 -7 -6 -6 -5 -5 -4 -4 -3 -3 -3 -3 -3 -3 -2
1 2 1 1 -0 0 0 0 -1 -2 1 0 -1 -0 -1 -1 -1 -1 -2 -2 -3 -3 -4 -4 -5 -6 -7 -7 -7 -7 -7 -7 -6 -5 -5 -5 -5 -4 -4 -3 -3 -3 -3 -2
1 1 1 1 1 1 1 0 -1 -3 -4 -1 -3 -3 -2 -2 -1 -1 -2 -2 -3 -3 -4 -4 -5 -5 -6 -6 -7 -7 -7 -6 -6 -6 -6 -5 -5 -5 -4 -4 -3 -3 -3 -3
1 1 1 1 1 1 -0 -0 -0 -1 -3 -2 -1 -1 -3 -3 -2 -2 -2 -2 -2 -3 -3 -3 -3 -4 -5 -6 -7 -7 -7 -7 -7 -7 -6 -6 -6 -5 -5 -5 -4 -4 -4 -3
-0 0 1 0 1 1 -0 -2 -1 -2 -3 -4 -3 -2 -2 -2 -2 -2 -2 -3 -2 -2 -2 -2 -2 -3 -4 -5 -7 -8 -8 -8 -8 -8 -7 -7 -7 -7 -6 -6 -5 -5 -5 -5
0 -0 0 1 1 -1 -2 -0 -0 -2 -3 -2 -3 -3 -3 -3 -3 -2 -3 -3 -2 -1 -1 -1 -2 -3 -4 -5 -6 -8 -8 -8 -8 -8 -8 -8 -8 -7 -7 -7 -7 -6 -6 -6
-1 -1 -0 1 1 -1 -1 -1 -2 -2 -3 -3 -3 -3 -3 -3 -1 -2 -1 -1 -1 -1 -1 -1 -2 -3 -4 -5 -6 -7 -7 -8 -8 -9 -9 -9 -9 -9 -8 -8 -8 -7 -7 -7
1 -2 1 1 -0 -1 -2 -1 -1 -1 -3 -3 -4 -4 -4 -3 -2 -2 -3 -3 -3 -2 -3 -3 -4 -4 -5 -5 -7 -7 -7 -7 -7 -7 -8 -9 -10 -9 -9 -9 -9 -9 -8 -8
-0 -0 -0 0 -0 -1 -2 -2 -1 -3 -5 -5 -5 -5 -6 -6 -4 -3 -4 -4 -4 -4 -4 -4 -5 -5 -5 -5 -7 -7 -7 -7 -7 -8 -8 -9 -9 -10 -10 -10 -10 -10 -10 -10
-3 -3 -1 -0 -1 -2 -3 -2 -3 -7 -7 -7 -7 -7 -7 -7 -7 -6 -6 -5 -6 -6 -5 -5 -6 -5 -6 -6 -7 -7 -7 -7 -8 -9 -9 -9 -9 -9 -9 -10 -10 -11 -10 -10
-3 -5 -4 -4 -3 -4 -5 -6 -8 -9 -10 -9 -9 -9 -10 -10 -10 -9 -8 -8 -8 -8 -7 -6 -6 -6 -6 -7 -8 -8 -8 -8 -9 -9 -10 -9 -9 -10 -10 -10 -10 -10 -10 -10
-5 -7 -5 -5 -6 -7 -6 -7 -9 -10 -11 -11 -11 -12 -12 -12 -12 -11 -11 -11 -10 -10 -9 -9 -8 -7 -7 -7 -8 -9 -9 -9 -10 -10 -10 -10 -10 -10 -9 -9 -9 -9 -9 -9
-7 -7 -8 -6 -6 -7 -6 -6 -11 -12 -13 -14 -14 -14 -14 -14 -14 -14 -13 -13 -12 -12 -11 -10 -10 -9 -9 -9 -9 -10 -10 -10 -11 -11 -11 -10 -10 -10 -9 -9 -9 -9 -9 -9
-8 -10 -9 -8 -9 -10 -9 -12 -12 -15 -15 -15 -16 -16 -15 -15 -15 -15 -15 -14 -14 -13 -13 -12 -12 -12 -11 -12 -12 -11 -11 -12 -12 -11 -11 -11 -10 -10 -10 -9 -9 -9 -9 -9
Height
754 754 752 745 745 746 745 749 743 735 735 745 741 739 746 768 768 765 770 774 782 792 798 801 803 805 806 806 807 807 807 806 804 814 806 813 813 811 810 811 814 815 819 817
757 753 742 742 745 748 749 751 749 741 743 752 747 740 756 771 771 773 774 776 782 792 797 800 805 806 807 808 809 809 809 810 809 811 806 815 810 819 813 814 817 816 817 819
745 743 751 752 753 757 754 755 750 747 742 754 754 742 751 772 782 789 787 783 785 790 794 800 804 807 808 810 810 811 812 812 812 811 813 817 820 819 815 816 817 816 818 820
747 749 757 755 755 751 754 745 751 756 753 754 749 747 729 755 783 790 790 794 792 795 796 800 806 807 810 811 812 812 812 813 813 814 813 817 817 818 818 816 818 819 820 820
753 757 760 758 758 763 754 750 750 752 757 757 752 759 730 744 771 782 791 791 795 797 799 801 805 810 811 812 813 813 813 812 815 814 814 816 815 816 818 817 820 821 820 821
760 769 771 772 770 767 764 758 753 752 759 767 744 752 730 743 764 765 790 794 798 801 802 805 807 811 813 813 813 813 813 813 812 813 814 818 818 814 818 817 819 823 823 823
764 773 777 780 771 763 769 761 761 762 758 744 727 737 734 784 787 780 790 799 802 805 806 807 808 811 815 815 815 816 816 816 816 817 818 818 817 816 818 820 821 824 825 826
770 771 786 790 788 785 770 765 755 747 732 722 737 737 747 794 793 792 795 803 806 808 810 809 809 813 817 818 818 818 818 818 818 818 818 819 819 820 820 824 822 826 826 827
781 778 788 791 793 791 776 773 776 767 744 749 743 778 788 795 798 799 803 805 809 811 813 814 814 816 818 819 819 820 820 820 820 820 820 821 822 823 824 824 825 827 827 829
804 789 791 788 790 794 791 790 774 767 762 744 740 749 755 794 798 802 805 808 811 813 815 815 817 819 820 821 821 821 822 822 822 822 822 822 823 825 825 826 827 828 829 831
800 805 787 786 807 810 791 784 784 779 768 750 739 765 806 795 798 804 809 812 815 816 818 819 820 821 822 823 824 824 824 824 824 824 824 825 825 826 828 829 830 831 831 831
801 804 789 807 819 820 816 814 802 784 775 768 763 785 816 812 806 810 814 817 820 822 823 824 824 825 825 826 827 827 827 827 827 826 826 827 827 827 829 830 831 831 831 832
804 802 789 807 816 813 808 814 825 816 803 776 775 790 815 814 810 814 817 820 823 825 827 828 829 830 830 830 830 830 829 829 829 829 829 829 828 829 829 830 831 832 832 832
810 805 803 800 813 813 812 813 818 823 794 804 813 807 815 815 815 817 819 822 825 828 829 831 832 833 834 834 833 833 833 831 831 831 831 831 830 830 830 831 831 831 832 832
813 811 807 812 813 811 814 815 820 829 839 815 830 826 825 820 818 819 821 824 827 829 830 832 834 835 835 835 835 834 834 833 833 833 832 832 832 831 831 831 831 832 832 833
814 809 811 811 811 809 821 819 819 826 836 824 820 819 829 828 825 825 825 825 826 828 830 832 833 834 835 835 835 835 834 834 834 833 833 833 832 832 832 832 833 833 833 833
822 816 811 809 811 809 815 836 830 835 837 842 831 830 827 825 825 824 826 828 827 827 828 829 831 832 833 834 834 834 833 833 833 833 833 833 833 833 833 833 833 833 834 833
820 823 817 805 810 815 837 831 830 836 840 838 836 833 832 831 829 827 829 829 828 827 826 827 829 831 832 833 834 833 833 833 832 832 832 832 832 832 833 833 833 833 833 833
828 825 818 810 808 830 832 835 838 837 843 844 842 837 836 833 825 826 828 829 828 827 826 826 828 829 830 831 832 833 833 832 832 831 831 831 830 831 831 831 831 832 832 832
822 830 817 812 813 815 835 834 836 836 835 847 847 845 843 837 826 826 832 833 830 829 828 827 828 828 828 829 829 830 830 830 830 830 830 829 829 829 829 828 828 829 829 829
829 826 823 817 816 829 839 838 834 838 853 855 853 851 850 848 844 837 837 833 831 829 828 827 826 826 826 826 827 827 827 826 827 827 827 828 828 827 827 826 826 826 826 826
851 848 826 824 824 829 846 836 841 862 861 861 858 856 854 852 847 843 839 835 832 829 826 826 825 823 822 823 823 823 823 824 824 824 824 825 825 825 825 824 824 824 824 823
849 866 858 855 845 855 858 860 866 867 868 864 863 861 860 855 849 844 839 835 832 828 825 823 821 819 818 819 819 819 819 820 820 821 821 821 821 821 822 822 822 822 821 821
864 875 860 861 863 864 860 863 867 869 869 867 865 863 860 855 849 842 839 835 830 826 823 819 816 813 813 814 814 815 816 816 816 817 817 817 817 818 818 818 818 818 818 818
879 875 877 862 858 861 858 857 869 869 870 868 865 862 857 852 846 843 837 832 827 823 819 815 811 809 808 809 809 810 811 812 812 813 813 813 813 813 813 813 814 814 814 814
883 891 885 872 873 876 868 870 869 869 868 865 862 856 853 850 843 839 833 829 824 819 814 810 807 805 805 804 805 805 806 807 808 808 809 809 809 809 809 810 809 809 809 809
Wind_Speed
8 8 10 14 15 14 14 12 14 11 2 5 12 15 11 5 6 9 9 9 10 8 8 8 7 7 6 5 7 6 8 7 7 3 7 4 4 6 8 7 6 7 6 7
4 10 12 10 8 12 13 14 15 13 2 2 12 13 8 4 5 6 9 9 9 8 8 9 8 6 7 6 6 5 6 6 6 4 8 1 6 2 6 7 6 6 4 5
12 2 7 5 10 10 13 14 13 14 7 7 11 14 12 8 6 5 4 6 6 9 9 8 6 8 7 7 6 5 5 4 6 7 9 9 8 4 7 6 5 6 4 3
8 4 2 8 10 9 13 12 14 14 13 12 13 11 17 16 12 11 10 9 9 6 4 6 8 4 6 6 5 5 5 4 4 3 6 5 5 6 5 7 6 6 6 5
3 2 4 6 5 6 11 11 9 10 12 13 12 7 14 15 12 13 13 11 8 7 6 7 8 6 6 5 5 4 4 6 3 3 4 3 5 8 6 9 8 7 6 5
4 3 4 5 8 6 8 7 10 11 8 10 21 15 12 10 7 13 13 11 9 7 6 4 5 7 6 5 7 5 6 4 5 4 4 4 6 8 6 7 7 6 6 5
2 3 3 6 7 7 6 8 6 9 9 11 11 14 5 5 4 5 13 7 5 5 5 5 7 8 7 6 6 7 6 7 7 9 7 6 6 7 7 6 6 5 5 5
3 4 5 7 4 6 6 9 9 9 12 14 7 9 6 5 5 8 9 7 6 5 4 3 6 8 7 7 7 7 7 8 7 7 9 7 6 6 6 5 6 4 4 4
4 3 3 2 3 3 1 7 4 6 10 5 4 5 6 6 7 7 7 7 7 6 6 6 6 8 7 7 7 7 7 8 8 8 8 9 6 6 6 7 6 5 5 4
4 3 2 3 1 0 4 6 3 6 6 11 2 1 3 5 7 6 7 6 6 6 6 6 9 8 7 7 7 7 7 7 7 7 7 7 8 6 6 6 6 5 4 4
2 1 3 3 7 7 4 2 3 4 3 6 6 4 5 5 6 6 7 7 6 6 6 6 8 9 9 9 8 8 7 7 6 6 5 6 6 6 5 5 5 5 5 4
5 3 2 4 2 1 2 6 5 4 4 0 3 3 5 4 5 7 7 7 7 8 8 9 12 13 13 12 11 10 9 8 7 5 4 4 4 5 5 4 4 4 4 4
8 2 2 5 3 4 4 6 4 6 3 1 4 4 4 2 6 7 7 7 7 7 8 8 10 11 11 12 11 11 11 9 7 6 5 5 4 3 3 3 2 2 2 3
3 3 5 6 6 4 5 10 8 3 3 7 5 5 2 2 4 5 6 7 7 6 6 6 6 7 7 7 8 8 9 9 8 6 5 5 5 4 3 2 2 2 1 2
3 2 4 5 6 6 7 8 10 8 4 5 8 5 9 7 1 4 4 6 6 5 4 4 4 3 3 4 4 5 6 6 6 5 4 4 3 3 3 2 2 1 1 0
3 2 2 3 4 6 11 13 10 8 9 3 8 4 10 7 3 1 1 0 3 4 3 4 4 5 3 2 2 2 3 4 4 3 3 3 3 3 3 3 2 1 1 2
4 3 3 4 3 5 3 9 10 10 11 4 8 12 8 3 2 2 1 2 4 3 5 7 7 7 5 3 1 1 3 4 4 3 2 2 2 2 2 3 3 2 2 3
5 2 2 2 4 4 5 4 7 12 11 13 13 13 10 9 10 6 3 4 6 7 7 7 8 7 5 3 2 2 3 4 5 4 4 4 4 4 4 4 4 3 3 4
7 3 1 3 4 5 5 3 3 4 6 11 14 14 13 14 9 5 6 10 9 9 9 9 8 7 6 5 4 4 4 4 4 5 5 6 6 6 7 8 8 8 8 7
3 3 3 3 3 2 6 7 6 4 4 14 15 14 15 15 7 2 15 16 16 14 11 9 9 8 8 7 6 6 6 6 6 6 6 6 7 8 8 8 9 9 10 11
5 4 5 5 2 4 9 11 4 5 5 14 15 15 13 10 11 17 20 19 19 17 15 12 11 12 11 9 8 10 9 9 7 6 6 7 7 9 9 9 8 9 9 10
4 4 4 3 2 1 16 3 5 5 10 13 15 14 14 15 17 17 18 17 20 20 18 16 15 16 13 11 11 13 13 10 8 8 8 8 8 8 7 9 10 9 9 10
0 4 4 3 4 7 12 7 6 11 11 14 13 14 14 17 18 18 18 20 21 23 22 22 20 20 18 16 14 15 14 11 10 10 10 10 9 9 9 9 9 9 9 9
3 5 3 7 5 13 5 4 11 13 11 12 12 14 16 15 18 18 16 19 21 22 22 22 23 20 20 18 17 17 13 11 11 11 11 11 11 10 10 10 10 10 9 9
4 6 9 8 2 14 7 10 15 11 12 12 16 15 15 14 15 16 14 20 21 23 24 21 19 16 18 18 16 15 14 12 13 12 12 12 11 11 11 11 11 11 11 10
3 2 4 5 13 10 13 15 16 14 14 15 14 16 19 20 15 22 19 21 21 22 23 21 19 17 17 14 14 14 13 13 13 13 12 12 12 11 11 10 10 11 13 14
Wind_Direction
191 211 216 225 229 235 276 292 283 265 155 236 246 253 182 154 207 196 196 188 163 149 130 116 107 104 101 99 112 105 109 97 95 183 85 108 57 67 117 110 119 142 158 158
174 230 240 248 275 266 255 258 257 259 250 241 261 256 130 179 189 212 201 195 175 148 150 135 123 115 105 109 107 108 118 123 125 147 126 196 119 116 106 110 110 114 130 155
237 92 55 256 243 245 241 247 256 256 202 250 269 251 204 202 180 219 238 213 184 182 167 146 129 132 118 109 107 120 102 97 109 127 128 137 142 135 103 93 90 88 100 122
255 44 285 254 251 243 253 244 240 259 264 247 206 256 241 187 203 204 194 199 191 182 183 152 137 118 114 105 101 105 100 89 91 121 128 173 170 139 118 108 100 97 90 92
67 33 352 253 298 342 269 307 263 242 245 253 243 250 244 165 205 200 200 194 196 188 188 174 144 116 114 108 92 85 90 83 77 102 118 128 125 132 115 112 105 94 86 92
353 55 22 346 313 284 314 271 244 247 238 234 234 220 246 185 229 195 189 197 186 190 181 159 141 129 102 103 100 76 86 76 68 65 83 147 141 121 128 112 107 100 92 89
153 68 31 359 306 211 227 245 231 226 218 238 231 221 231 79 14 338 156 178 154 177 177 181 165 142 113 95 93 100 101 88 100 103 100 109 112 110 118 117 113 112 103 94
316 171 14 2 6 333 278 252 247 246 243 242 152 216 161 64 53 81 120 131 137 123 118 156 143 132 118 94 85 95 94 89 91 102 93 88 95 106 111 118 111 112 102 97
335 119 105 53 343 319 44 230 341 306 268 269 171 90 116 115 109 122 132 143 127 116 114 115 105 119 101 90 83 87 87 87 88 90 101 94 91 102 111 106 106 107 99 101
50 276 21 35 295 72 292 335 244 211 259 255 154 211 68 160 130 128 134 121 117 119 111 111 116 111 100 82 79 79 80 83 82 86 93 99 92 87 98 108 110 109 106 104
332 266 76 217 27 8 350 3 310 299 284 271 268 90 0 33 127 128 104 88 94 93 90 88 93 102 105 90 73 64 62 64 71 79 86 95 104 92 95 106 109 112 110 97
35 320 342 38 104 41 33 6 331 294 21 220 286 87 346 330 91 116 109 96 81 71 64 59 61 61 60 63 64 58 49 48 46 58 78 91 104 115 101 101 100 101 105 105
356 99 239 163 175 187 48 30 334 285 256 312 316 61 21 320 113 115 121 108 99 94 82 73 69 65 59 56 54 51 48 40 40 46 59 69 80 103 125 128 104 118 118 104
309 357 15 22 30 336 27 21 4 316 303 335 42 350 92 55 101 110 111 123 110 102 92 89 78 67 66 61 56 50 39 35 33 41 50 60 62 70 74 83 102 129 154 171
5 57 53 69 82 77 58 35 37 41 359 8 351 351 7 330 39 69 92 112 126 128 134 126 134 138 117 95 70 56 46 37 35 32 34 35 40 51 67 68 61 61 62 349
360 91 183 107 122 91 65 32 31 34 4 358 321 88 10 312 36 95 79 270 180 180 197 174 186 182 169 142 79 31 18 19 25 31 31 31 36 38 37 37 34 7 322 308
4 339 277 110 174 207 111 18 52 63 44 337 11 330 342 319 281 247 171 301 313 269 226 218 211 206 196 192 205 309 329 339 345 343 338 342 7 11 13 14 12 358 337 318
342 344 312 65 199 225 100 92 102 82 45 27 26 25 12 357 341 350 355 309 288 276 257 231 219 214 209 208 231 271 295 305 313 310 300 287 285 290 294 298 301 307 306 304
18 298 0 290 36 109 151 55 350 339 67 27 6 5 1 348 305 20 10 358 325 317 279 258 237 233 232 233 239 244 258 264 276 285 282 279 281 282 280 278 279 278 277 270
353 180 295 353 319 345 40 355 326 261 189 14 1 354 350 343 337 53 352 337 326 319 295 267 247 242 243 247 245 252 258 255 256 254 259 272 283 282 280 280 278 274 269 270
348 352 7 355 354 113 6 335 339 220 38 357 351 344 335 328 316 316 323 317 314 310 299 273 262 248 249 246 241 253 259 258 262 252 250 252 258 273 283 282 275 274 274 269
343 319 23 293 302 182 7 349 335 27 360 342 336 328 325 315 311 311 310 310 313 309 302 284 272 261 255 245 241 250 254 258 256 255 256 255 254 253 255 261 274 272 272 276
210 7 321 350 18 25 351 92 71 26 343 337 328 327 320 311 308 309 306 304 303 301 292 288 277 265 257 247 239 246 251 249 249 252 257 263 261 257 254 251 256 262 259 256
98 14 337 323 50 351 3 90 16 356 345 338 326 323 315 305 306 306 305 303 299 296 295 293 287 264 257 251 243 244 248 243 243 250 256 259 259 259 255 251 249 248 252 255
1 348 327 286 340 342 197 358 357 347 341 329 322 316 307 305 302 300 299 298 295 295 291 286 278 272 263 258 246 242 241 237 242 248 252 254 256 256 255 250 249 251 253 254
19 17 329 290 328 310 302 336 336 342 334 329 321 315 317 309 302 305 300 297 299 293 287 281 275 266 261 257 248 245 239 233 236 244 247 248 248 249 249 251 258 256 258 262